• In Czech Republic
  • List of Countries
  • For 7 days
  • Water Temperature
  • Satellite Maps
  • Weather Map
  • Weather Widgets
  • user-avatar
    Login

    Hourly Weather Casper

    Today, 20 September, Thursday

    Time Temperature Precipitation Wind Pressure Humidity
    00:00 +15°C° 0.8 mm 6 mps 627 mmHg 78%
    01:00 +15°C° 0.8 mm 5 mps 627 mmHg 79%
    02:00 +15°C° 0.8 mm 5 mps 627 mmHg 79%
    03:00 +15°C° 0.4 mm 4 mps 626 mmHg 80%
    04:00 +15°C° 0.4 mm 4 mps 626 mmHg 81%
    05:00 +14°C° 0.4 mm 3 mps 626 mmHg 82%
    06:00 +15°C° 0.1 mm 4 mps 626 mmHg 75%
    07:00 +17°C° 0.1 mm 4 mps 627 mmHg 68%
    08:00 +17°C° 0.1 mm 5 mps 627 mmHg 60%
    09:00 +19°C° 0 mm 6 mps 628 mmHg 48%
    10:00 +20°C° 0 mm 8 mps 628 mmHg 36%
    11:00 +22°C° 0 mm 10 mps 629 mmHg 24%
    12:00 +22°C° 0 mm 10 mps 629 mmHg 22%
    13:00 +22°C° 0 mm 10 mps 630 mmHg 20%
    14:00 +22°C° 0 mm 10 mps 630 mmHg 18%
    15:00 +21°C° 0 mm 9 mps 630 mmHg 20%
    16:00 +20°C° 0 mm 8 mps 631 mmHg 22%
    17:00 +20°C° 0 mm 7 mps 631 mmHg 24%
    18:00 +17°C° 0 mm 6 mps 631 mmHg 32%
    19:00 +15°C° 0 mm 5 mps 631 mmHg 40%
    20:00 +14°C° 0 mm 4 mps 631 mmHg 47%
    21:00 +13°C° 0 mm 3 mps 632 mmHg 53%
    22:00 +12°C° 0 mm 3 mps 632 mmHg 59%
    23:00 +12°C° 0 mm 2 mps 632 mmHg 64%

    Tomorrow, 21 September, Friday

    Time Temperature Precipitation Wind Pressure Humidity
    00:00 +12°C° 0 mm 2 mps 632 mmHg 65%
    01:00 +11°C° 0 mm 1 mps 632 mmHg 67%
    02:00 +11°C° 0 mm 1 mps 632 mmHg 68%
    03:00 +11°C° 0 mm 1 mps 632 mmHg 66%
    04:00 +10°C° 0 mm 2 mps 632 mmHg 64%
    05:00 +10°C° 0 mm 2 mps 633 mmHg 62%
    06:00 +12°C° 0 mm 2 mps 633 mmHg 53%
    07:00 +12°C° 0 mm 3 mps 634 mmHg 45%
    08:00 +14°C° 0 mm 3 mps 634 mmHg 36%
    09:00 +17°C° 0 mm 4 mps 635 mmHg 29%
    10:00 +19°C° 0 mm 4 mps 635 mmHg 23%
    11:00 +21°C° 0 mm 5 mps 635 mmHg 16%
    12:00 +22°C° 0 mm 5 mps 635 mmHg 15%
    13:00 +23°C° 0 mm 6 mps 635 mmHg 13%
    14:00 +26°C° 0 mm 6 mps 635 mmHg 12%
    15:00 +24°C° 0 mm 6 mps 634 mmHg 13%
    16:00 +24°C° 0 mm 6 mps 634 mmHg 13%
    17:00 +24°C° 0 mm 6 mps 634 mmHg 14%
    18:00 +22°C° 0 mm 5 mps 634 mmHg 16%
    19:00 +20°C° 0 mm 4 mps 634 mmHg 18%
    20:00 +19°C° 0 mm 3 mps 633 mmHg 20%
    21:00 +18°C° 0 mm 3 mps 633 mmHg 21%
    22:00 +18°C° 0 mm 3 mps 633 mmHg 21%
    23:00 +17°C° 0 mm 4 mps 633 mmHg 21%

    Day after tomorrow, 22 September, Saturday

    Time Temperature Precipitation Wind Pressure Humidity
    00:00 +17°C° 0 mm 4 mps 633 mmHg 22%
    01:00 +15°C° 0 mm 4 mps 633 mmHg 23%
    02:00 +16°C° 0 mm 3 mps 633 mmHg 24%
    03:00 +14°C° 0 mm 3 mps 633 mmHg 24%
    04:00 +14°C° 0 mm 4 mps 633 mmHg 24%
    05:00 +14°C° 0 mm 4 mps 633 mmHg 25%
    06:00 +15°C° 0 mm 4 mps 633 mmHg 23%
    07:00 +16°C° 0 mm 5 mps 634 mmHg 22%
    08:00 +19°C° 0 mm 5 mps 634 mmHg 20%
    09:00 +21°C° 0 mm 6 mps 635 mmHg 17%
    10:00 +23°C° 0 mm 7 mps 635 mmHg 15%
    11:00 +26°C° 0 mm 7 mps 635 mmHg 12%
    12:00 +27°C° 0 mm 7 mps 635 mmHg 11%
    13:00 +27°C° 0 mm 7 mps 635 mmHg 11%
    14:00 +28°C° 0 mm 7 mps 634 mmHg 10%
    15:00 +28°C° 0 mm 7 mps 634 mmHg 11%
    16:00 +27°C° 0 mm 6 mps 633 mmHg 12%
    17:00 +27°C° 0 mm 5 mps 633 mmHg 12%
    18:00 +25°C° 0 mm 5 mps 633 mmHg 14%
    19:00 +23°C° 0 mm 4 mps 632 mmHg 15%
    20:00 +21°C° 0 mm 4 mps 632 mmHg 17%
    21:00 +20°C° 0 mm 4 mps 632 mmHg 17%
    22:00 +20°C° 0 mm 5 mps 632 mmHg 18%
    23:00 +19°C° 0 mm 5 mps 631 mmHg 18%

    23 September, Sunday

    Time Temperature Precipitation Wind Pressure Humidity
    00:00 +19°C° 0 mm 5 mps 631 mmHg 19%
    01:00 +18°C° 0 mm 4 mps 631 mmHg 20%
    02:00 +17°C° 0 mm 4 mps 630 mmHg 20%
    03:00 +17°C° 0 mm 4 mps 630 mmHg 21%
    04:00 +17°C° 0 mm 4 mps 630 mmHg 22%
    05:00 +15°C° 0 mm 5 mps 630 mmHg 23%
    06:00 +16°C° 0 mm 5 mps 630 mmHg 22%
    07:00 +19°C° 0 mm 6 mps 630 mmHg 21%
    08:00 +20°C° 0 mm 7 mps 631 mmHg 20%
    09:00 +22°C° 0 mm 8 mps 631 mmHg 18%
    10:00 +24°C° 0 mm 9 mps 631 mmHg 17%
    11:00 +27°C° 0 mm 10 mps 631 mmHg 16%
    12:00 +28°C° 0 mm 10 mps 631 mmHg 15%
    13:00 +28°C° 0 mm 10 mps 630 mmHg 14%
    14:00 +29°C° 0 mm 10 mps 630 mmHg 13%
    15:00 +28°C° 0 mm 9 mps 629 mmHg 14%
    16:00 +27°C° 0 mm 8 mps 629 mmHg 14%
    17:00 +26°C° 0 mm 6 mps 629 mmHg 15%
    18:00 +23°C° 0 mm 7 mps 629 mmHg 24%
    19:00 +21°C° 0 mm 7 mps 629 mmHg 32%
    20:00 +18°C° 0 mm 7 mps 629 mmHg 41%
    21:00 +17°C° 0 mm 6 mps 629 mmHg 45%
    22:00 +17°C° 0 mm 4 mps 628 mmHg 49%
    23:00 +16°C° 0 mm 2 mps 628 mmHg 54%

    24 September, Monday

    Time Temperature Precipitation Wind Pressure Humidity
    00:00 +14°C° 0.1 mm 3 mps 628 mmHg 56%
    01:00 +14°C° 0.1 mm 3 mps 628 mmHg 58%
    02:00 +13°C° 0.1 mm 3 mps 628 mmHg 60%
    03:00 +12°C° 0.1 mm 4 mps 628 mmHg 65%
    04:00 +10°C° 0.1 mm 5 mps 628 mmHg 71%
    05:00 +9°C° 0.1 mm 5 mps 629 mmHg 76%
    06:00 +11°C° 0 mm 4 mps 629 mmHg 72%
    07:00 +11°C° 0 mm 3 mps 630 mmHg 69%
    08:00 +12°C° 0 mm 2 mps 630 mmHg 65%
    09:00 +12°C° 0 mm 3 mps 630 mmHg 57%
    10:00 +13°C° 0 mm 3 mps 631 mmHg 48%
    11:00 +16°C° 0 mm 3 mps 631 mmHg 40%
    12:00 +17°C° 0 mm 4 mps 631 mmHg 35%
    13:00 +17°C° 0 mm 5 mps 631 mmHg 30%
    14:00 +20°C° 0 mm 6 mps 631 mmHg 25%
    15:00 +20°C° 0 mm 6 mps 631 mmHg 23%
    16:00 +20°C° 0 mm 5 mps 631 mmHg 22%
    17:00 +20°C° 0 mm 5 mps 631 mmHg 20%
    18:00 +17°C° 0 mm 5 mps 631 mmHg 26%
    19:00 +15°C° 0 mm 6 mps 631 mmHg 33%
    20:00 +13°C° 0 mm 6 mps 631 mmHg 39%
    21:00 +12°C° 0 mm 5 mps 632 mmHg 45%
    22:00 +11°C° 0 mm 4 mps 632 mmHg 52%
    23:00 +10°C° 0 mm 3 mps 632 mmHg 58%

    25 September, Tuesday

    Time Temperature Precipitation Wind Pressure Humidity
    00:00 +9°C° 0 mm 3 mps 632 mmHg 61%
    01:00 +9°C° 0 mm 2 mps 633 mmHg 63%
    02:00 +9°C° 0 mm 1 mps 633 mmHg 66%
    03:00 +9°C° 0 mm 1 mps 633 mmHg 67%
    04:00 +9°C° 0 mm 1 mps 633 mmHg 69%
    05:00 +7°C° 0 mm 0 mps 633 mmHg 70%
    06:00 +9°C° 0 mm 1 mps 634 mmHg 64%
    07:00 +10°C° 0 mm 1 mps 634 mmHg 59%
    08:00 +12°C° 0 mm 1 mps 635 mmHg 53%
    09:00 +13°C° 0 mm 1 mps 635 mmHg 47%
    10:00 +14°C° 0 mm 2 mps 636 mmHg 41%
    11:00 +15°C° 0 mm 2 mps 636 mmHg 35%
    12:00 +16°C° 0 mm 3 mps 636 mmHg 31%
    13:00 +18°C° 0 mm 3 mps 636 mmHg 27%
    14:00 +19°C° 0 mm 4 mps 636 mmHg 23%
    15:00 +19°C° 0 mm 4 mps 636 mmHg 21%
    16:00 +18°C° 0 mm 4 mps 636 mmHg 20%
    17:00 +18°C° 0 mm 4 mps 636 mmHg 18%
    18:00 +17°C° 0 mm 4 mps 636 mmHg 23%
    19:00 +14°C° 0 mm 4 mps 635 mmHg 28%
    20:00 +13°C° 0 mm 3 mps 635 mmHg 33%
    21:00 +12°C° 0 mm 3 mps 635 mmHg 36%
    22:00 +11°C° 0 mm 3 mps 635 mmHg 40%
    23:00 +10°C° 0 mm 3 mps 635 mmHg 43%
    Show more